Address 0xe64fbe98ddde788c6c52b7c6aa72567147e37403 10

Txn Hash Method
Block
From
To
Value [Txn Fee]
0x9962ead95abeda539cc1aa47e8e6ea9043acf4f0d883c3a336eb7d71809c3638Transfer166655412022-06-29 9:25:0449 days 23 hrs ago0xe64fbe98ddde788c6c52b7c6aa72567147e37403OUT 0x01c5e2a4af2bd9f62c7d55c6105b8a64e6905be50 AVAX0.‍0124434725 26.‍5
0x3b9893d8b24a6cc34b37791d67e3602ccdc43c47e781854e79bde01b3c1aeb120x5f575529166654972022-06-29 9:23:3649 days 23 hrs ago0xe64fbe98ddde788c6c52b7c6aa72567147e37403OUT 0x1a1ec25dc08e98e5e93f1104b5e5cdd298707d310 AVAX0.‍024374088 27
0x553d984ce466fbeb853d4a530c1ff85e00da7bec9b865b70d070f0d8f001a130Approve166654972022-06-29 9:23:3649 days 23 hrs ago0xe64fbe98ddde788c6c52b7c6aa72567147e37403OUT 0x01c5e2a4af2bd9f62c7d55c6105b8a64e6905be50 AVAX0.‍001257444 27
0xbaf2b2f74f3904bc62b8d4fe522fdf3027e739581f042570d9ca87a66941132dTransfer166654562022-06-29 9:22:1349 days 23 hrs ago0xe64fbe98ddde788c6c52b7c6aa72567147e37403OUT 0xe761afc921ec7ff11df025f8967d08e3daa805a80 AVAX0.‍0166734025 26.‍5
0x11fd76cddfafe6e2e6f823d3f02b724b41b224f39734b077e77ff309302a1537Transfer166653652022-06-29 9:19:0549 days 23 hrs ago0xe64fbe98ddde788c6c52b7c6aa72567147e37403OUT 0x90842eb834cfd2a1db0b1512b254a18e4d3962150 AVAX0.‍002174802 26.‍5
0x37c6c70dcc26e01e7abb98cf52646695bd40a178f2c42e86b346299059cc59020x5f575529166651192022-06-29 9:10:5749 days 23 hrs ago0xe64fbe98ddde788c6c52b7c6aa72567147e37403OUT 0x1a1ec25dc08e98e5e93f1104b5e5cdd298707d310 AVAX0.‍00547943175 27.‍45
0xbe9d6ce387e3dae0427885c3911006b1585c30a861bdea11f0852709dfae6218Approve166651182022-06-29 9:10:5549 days 23 hrs ago0xe64fbe98ddde788c6c52b7c6aa72567147e37403OUT 0x90842eb834cfd2a1db0b1512b254a18e4d3962150 AVAX0.‍0012966831 27.‍45
0xd5321797ee0f440f8e0717d2d2243ecb4f958cd2bc38fecd1df710b0624294d30x5f575529166650772022-06-29 9:09:3249 days 23 hrs ago0xe64fbe98ddde788c6c52b7c6aa72567147e37403OUT 0x1a1ec25dc08e98e5e93f1104b5e5cdd298707d310 AVAX0.‍016222329 27
0x008f4fb086ff744ac658464a863203a3ecffe331f4080519feefe1ff0e38d55dApprove166650762022-06-29 9:09:3149 days 23 hrs ago0xe64fbe98ddde788c6c52b7c6aa72567147e37403OUT 0x63682bdc5f875e9bf69e201550658492c9763f890 AVAX0.‍001258497 27
0x78fe625b95295e68aec517e7d524a442a6d864f962f991ba4f314c8a56c8964fSwap Exact Token...166650322022-06-29 9:08:0349 days 23 hrs ago0xe64fbe98ddde788c6c52b7c6aa72567147e37403OUT SushiSwap: Router0 AVAX0.‍004895981 26.‍5
0xf7461b14f2029bb179494c3c4b919b148a8c3092f59a79413862ea80f658d7c4Approve166650092022-06-29 9:07:1849 days 23 hrs ago0xe64fbe98ddde788c6c52b7c6aa72567147e37403OUT Wonderland: Time Token0 AVAX0.‍0012316935 26.‍5
0x3c1a4269b420518e4ab189aeb66bb7c6fefeb18eda362166984acbcc9f8c41620x5f575529166648882022-06-29 9:03:1549 days 23 hrs ago0xe64fbe98ddde788c6c52b7c6aa72567147e37403OUT 0x1a1ec25dc08e98e5e93f1104b5e5cdd298707d310 AVAX0.‍031006557 27
0x4cb154d07987ce06c2be1f08bd632c3b72d2604cd798e668ba8ce9199182be5c0x5f575529166647142022-06-29 8:57:2449 days 23 hrs ago0xe64fbe98ddde788c6c52b7c6aa72567147e37403OUT 0x1a1ec25dc08e98e5e93f1104b5e5cdd298707d310 AVAX0.‍025294869 27
0xdd102197d8b78d3ef7a5a8ce5183cd0a2c7870bf15219352b335bb71bbc2ae54Approve166647142022-06-29 8:57:2449 days 23 hrs ago0xe64fbe98ddde788c6c52b7c6aa72567147e37403OUT 0xe761afc921ec7ff11df025f8967d08e3daa805a80 AVAX0.‍001257444 27
0x7fe6798cc2c2b9e14bd7231691e160abad25e4ce0f6835fa25955ae78f61e9940x5f575529166646682022-06-29 8:55:5249 days 23 hrs ago0xe64fbe98ddde788c6c52b7c6aa72567147e37403OUT 0x1a1ec25dc08e98e5e93f1104b5e5cdd298707d310 AVAX0.‍025461081 27
0xed327b906b24aa9dde4d1b440d24002d59c6437f7bb1a28d7e855561936c1d0cApprove166646672022-06-29 8:55:5049 days 23 hrs ago0xe64fbe98ddde788c6c52b7c6aa72567147e37403OUT Wonderland: MEMOries Token0 AVAX0.‍0012528 27
0x99575cd459c864348bdb52211bc780201aa0539f5af581165474ca66a864c884Deposit ETH128897422022-04-02 7:25:18138 days 1 hr ago0xe64fbe98ddde788c6c52b7c6aa72567147e37403OUT Defi Kingdom: AVAX Bridge198 AVAX0.‍004886867677 54.‍669064516
0xe30044d877aa6fa2b616d3c0c2f77ea314f33c9b52445e619dff1e39097a0e97Swap Exact Token...128895862022-04-02 7:20:06138 days 1 hr ago0xe64fbe98ddde788c6c52b7c6aa72567147e37403OUT Pangolin: Router0 AVAX0.‍008592391124 54.‍886272825
0x646aec86edb43b56e731b2965734296630b68ff993c42af4dbc9428318245938Approve128895542022-04-02 7:19:02138 days 1 hr ago0xe64fbe98ddde788c6c52b7c6aa72567147e37403OUT Axelar: Wrapped UST0 AVAX0.‍002583922296 55.‍438269349
0xdd1d5b4877035dd30e13a10738ef6d54bd3b37a14aca30aeffb342971c062c43Deposit ETH128437062022-04-01 5:25:33139 days 3 hrs ago0xe64fbe98ddde788c6c52b7c6aa72567147e37403OUT Defi Kingdom: AVAX Bridge84.‍5 AVAX0.‍003004148453 33.‍607209462
0x6e819ca974662afc5f568eca10804281300854a34738ca41e4191898ae755079Deposit ETH128435522022-04-01 5:20:23139 days 3 hrs ago0xe64fbe98ddde788c6c52b7c6aa72567147e37403OUT Defi Kingdom: AVAX Bridge1 AVAX0.‍00306142525 34.‍252559356
0xb5a7d53088a75ea0a90ceb306755df69a2fb06f7b6a9a32bd47f732bc046a473Swap Exact Token...128433332022-04-01 5:13:02139 days 3 hrs ago0xe64fbe98ddde788c6c52b7c6aa72567147e37403OUT Trader Joe: Router0 AVAX0.‍004577276128 31.‍775827175
0x9470ffa644e1ba5e99349ace6b3eeb5e359ede6e38c4ac7ceb8483672aa162a1Approve128432922022-04-01 5:11:38139 days 3 hrs ago0xe64fbe98ddde788c6c52b7c6aa72567147e37403OUT Axelar: Wrapped UST0 AVAX0.‍001506708182 32.‍32655029
0xa2d975ab114902bc77fc4d76318925ba5c1afb50e1c46788abd8090015bd5a91Approve112005722022-02-21 8:27:39178 days 14 mins ago0xe64fbe98ddde788c6c52b7c6aa72567147e37403OUT Wonderland: MEMOries Token0 AVAX0.‍001392 30
0x69d46341f04e2267d2d26cd67fdf79a9ca9640e5843926cedcef101546e6223bClaim111998352022-02-21 8:02:51178 days 38 mins ago0xe64fbe98ddde788c6c52b7c6aa72567147e37403OUT 0xedd1cb10d6dde82c805f7fc9988ee3d89c115e340 AVAX0.‍002098111 26.‍5
[ Download CSV Export 
Latest 4 internal transactions
Parent Txn Hash Block From To Value
0xe30044d877aa6fa2b616d3c0c2f77ea314f33c9b52445e619dff1e39097a0e97128895862022-04-02 7:20:06138 days 1 hr ago Pangolin: Router0xe64fbe98ddde788c6c52b7c6aa72567147e37403199.‍059150364128164555 AVAX
0xb5a7d53088a75ea0a90ceb306755df69a2fb06f7b6a9a32bd47f732bc046a473128433332022-04-01 5:13:02139 days 3 hrs ago Trader Joe: Router0xe64fbe98ddde788c6c52b7c6aa72567147e3740385.‍89903100400946656 AVAX
0x12683db92ee015b15bc74ed523908392d55d5aa61a2e2253a6cef473753fc57578938152021-12-06 18:46:45254 days 13 hrs ago 0xecdbe3937cf6ff27f70480855cfe03254f915b480xe64fbe98ddde788c6c52b7c6aa72567147e374030.‍17637456 AVAX
0x1f27efc8aa1b21d3d5a9f93d4abbdc044552f3b61ee4b0988fbc6d791762fc5542660522021-09-13 9:45:09338 days 22 hrs ago Trader Joe: Router0xe64fbe98ddde788c6c52b7c6aa72567147e374032.‍661612536950825538 AVAX
[ Download CSV Export 
Loading

Contract Name:
0

Compiler Version
0

Optimization Enabled:
0

Other Settings:
-NA-
Block Transaction Gas Used Reward
Age Block Fee Address BC Fee Address Voting Power Jailed Incoming
Block Uncle Number Difficulty Gas Used Reward
Loading
Make sure to use the "Vote Down" button for any spammy posts, and the "Vote Up" for interesting conversations.